Weather History for Rogers, AR

Change the Weather History Date:

Wednesday, December 25, 2013

  Actual Average Record
Temperature  
Mean Temperature 34 °F -  
Max Temperature 42 °F 43 °F 55 °F (2008)
Min Temperature 25 °F 26 °F 10 °F (2002)
Degree Days  
Heating Degree Days 32    
Moisture  
Dew Point 28 °F    
Average Humidity 83    
Maximum Humidity 100    
Minimum Humidity 65    
Precipitation  
Precipitation 0.00 in - - ()
Sea Level Pressure  
Sea Level Pressure 30.36 in    
Wind  
Wind Speed 3 mph (WSW)    
Max Wind Speed 9 mph    
Max Gust Speed -    
Visibility 8 miles    
Events      
Averages and records for this station are not official NWS values.
T = Trace of Precipitation, MM = Missing Value Source: NWS Daily Summary

Daily Weather History Graph

Daily Weather History Graph

Search for Another Location

Airport:

Trip Planner

Search our weather history database for the weather conditions in past years. The results will help you decide how hot, cold, wet, or windy it might be!

Date:

Astronomy

Dec. 25, 2013 Rise Set
Actual Time 7:26 AM CST 5:07 PM CST
Civil Twilight 6:57 AM CST 5:36 PM CST
Nautical Twilight 6:25 AM CST 6:08 PM CST
Astronomical Twilight 5:53 AM CST 6:39 PM CST
Moon 12:04 AM CST (12/25) 12:03 PM CST (12/25)
Length of Visible Light 10h 38m
Length of Day
9h 41m
Waning Gibbous, 48% of the Moon is Illuminated
Dec 25
Waning Gibbous
Jan 1
New
Jan 7
First Quarter
Jan 15
Full
Jan 23
Last Quarter

Hourly Weather History & Observations

Time (CST) Temp. Windchill Dew Point Humidity Pressure Visibility Wind Dir Wind Speed Gust Speed Precip Events Conditions
12:57 AM 32.0 °F 28.7 °F 26.1 °F 79% 30.30 in 10.0 mi SE 3.5 mph - N/A   Overcast
1:57 AM 30.9 °F - 26.1 °F 82% 30.30 in 10.0 mi Calm Calm - N/A   Clear
2:57 AM 28.0 °F - 25.0 °F 88% 30.32 in 10.0 mi Calm Calm - N/A   Partly Cloudy
3:57 AM 28.0 °F 24.2 °F 24.1 °F 85% 30.31 in 10.0 mi SE 3.5 mph - N/A   Mostly Cloudy
4:57 AM 26.1 °F 20.5 °F 23.0 °F 88% 30.31 in 10.0 mi SSE 4.6 mph - N/A   Scattered Clouds
5:57 AM 25.0 °F - 23.0 °F 92% 30.32 in 10.0 mi Calm Calm - N/A   Clear
6:57 AM 26.1 °F - 23.0 °F 88% 30.33 in 10.0 mi Calm Calm - N/A   Clear
7:57 AM 27.0 °F - 25.0 °F 92% 30.35 in 9.0 mi Calm Calm - N/A   Clear
8:57 AM 35.1 °F 32.2 °F 30.0 °F 82% 30.37 in 10.0 mi WSW 3.5 mph - N/A   Clear
9:57 AM 34.0 °F 31.0 °F 28.0 °F 79% 30.38 in 10.0 mi Variable 3.5 mph - N/A   Partly Cloudy
10:57 AM 37.9 °F 31.5 °F 30.0 °F 73% 30.37 in 10.0 mi West 9.2 mph - N/A   Overcast
11:57 AM 39.0 °F 33.4 °F 30.0 °F 70% 30.36 in 10.0 mi West 8.1 mph - N/A   Scattered Clouds
12:57 PM 41.0 °F 37.1 °F 30.9 °F 67% 30.34 in 10.0 mi West 5.8 mph - N/A   Mostly Cloudy
1:57 PM 42.1 °F 36.6 °F 30.9 °F 65% 30.33 in 10.0 mi West 9.2 mph - N/A   Mostly Cloudy
2:57 PM 42.1 °F 37.7 °F 32.0 °F 67% 30.34 in 10.0 mi WNW 6.9 mph - N/A   Overcast
3:57 PM 41.0 °F 36.4 °F 32.0 °F 70% 30.35 in 10.0 mi West 6.9 mph - N/A   Partly Cloudy
4:57 PM 37.9 °F 35.5 °F 30.0 °F 73% 30.37 in 10.0 mi WSW 3.5 mph - N/A   Clear
5:57 PM 35.1 °F 30.1 °F 30.0 °F 82% 30.38 in 9.0 mi West 5.8 mph - N/A   Clear
6:57 PM 33.1 °F 27.7 °F 30.0 °F 89% 30.40 in 7.0 mi West 5.8 mph - N/A   Clear
7:57 PM 32.0 °F 26.4 °F 28.9 °F 88% 30.41 in 6.0 mi WNW 5.8 mph - N/A   Clear
8:57 PM 30.0 °F 25.2 °F 27.0 °F 88% 30.41 in 6.0 mi West 4.6 mph - N/A   Clear
9:57 PM 28.9 °F 25.2 °F 27.0 °F 92% 30.42 in 4.0 mi WNW 3.5 mph - N/A   Clear
10:44 PM 26.6 °F - 26.6 °F 100% 30.39 in 2.5 mi Calm Calm - N/A   Clear
10:57 PM 27.0 °F - 26.1 °F 96% 30.42 in 2.5 mi Calm Calm - N/A   Clear
11:39 PM 28.4 °F 24.6 °F 26.6 °F 93% 30.39 in 3.0 mi South 3.5 mph - N/A   Clear
11:57 PM 27.0 °F 21.6 °F 26.1 °F 96% 30.42 in 3.0 mi SSE 4.6 mph - N/A   Clear